Location: ???? ?????
(30.0052°N, 31.2891°E)
Time: 19:31:15
(UTC+00:00)

ACS3 Solar Sail - Pass Details

Date: 20 September 2024
Orbit: 960 x 1036 km, 97.4° (Epoch: 09 October)

Event Time Altitude Azimuth Distance (km) Brightness Sun altitude
Rises 08:56:00 0° 333° (NNW) 3,747 4.5 58.3°
Enters shadow 09:49:34 -71° 137° (SE) 13,091 7.1 60.8°
Exits shadow 10:14:07 -44° 47° (NE) 10,329 6.5 60.2°
Maximum altitude 17:15:19 25° 69° (ENE) 1,941 2.9 -18.4°
